N1OTX Weather Reports


time (UTC)temp
C
wind
direction
speed
KPH
gust
KPH
rain 1hr
cm
rain 24hr
cm
rain mn
cm
humidity
%
barometer
mb
20260904130043 20 10 0.0 1.6 0.00 0.00 0.00 94 1009.9
20260904125542 20 38 0.0 1.6 0.00 0.00 0.00 95 1010.0
20260904125022 19 320 0.0 3.2 0.00 0.00 0.00 97 1010.0
20260904124522 19 207 0.0 3.2 0.00 0.00 0.00 99 1009.9
20260904124022 19 328 0.0 3.2 0.00 0.00 0.00 99 1009.9
20260904123522 18 123 1.6 3.2 0.00 0.00 0.00 99 1009.8
20260904123041 18 144 0.0 1.6 0.00 0.00 0.00 99 1010.0
20260904122541 18 144 0.0 1.6 0.00 0.00 0.00 99 1010.0
20260904122041 18 0.0 0.0 0.00 0.00 0.00 99 1010.0
20260904121541 18 0.0 1.6 0.00 0.00 0.00 99 1009.9
20260904121020 18 144 0.0 1.6 0.00 0.00 0.00 99 1009.9
20260904120520 18 0.0 0.0 0.00 0.00 0.00 99 1009.9
20260904120042 18 0.0 0.0 0.00 0.00 0.00 99 1009.8
20260904115522 18 0.0 0.0 0.00 0.00 0.00 99 1009.8
20260904115022 18 0.0 0.0 0.00 0.00 0.00 99 1009.9
20260904114521 18 0.0 0.0 0.00 0.00 0.00 99 1009.9
20260904114021 18 0.0 0.0 0.00 0.00 0.00 99 1009.8
20260904113521 18 150 0.0 1.6 0.00 0.00 0.00 99 1009.9
20260904113021 18 0.0 0.0 0.00 0.00 0.00 99 1009.8
20260904112520 18 0.0 0.0 0.00 0.00 0.00 99 1009.7
20260904112020 18 0.0 0.0 0.00 0.00 0.00 99 1009.8
20260904111520 18 0.0 0.0 0.00 0.03 0.00 99 1009.7
20260904111020 18 0.0 0.0 0.00 0.03 0.00 99 1009.7
20260904110520 18 0.0 0.0 0.00 0.03 0.00 99 1009.6
20260904110041 18 152 0.0 1.6 0.00 0.05 0.00 99 1009.8
20260904105521 18 0.0 0.0 0.00 0.05 0.00 99 1009.7
20260904105021 18 151 0.0 1.6 0.00 0.08 0.00 99 1009.6
20260904104601 18 0.0 0.0 0.00 0.08 0.00 99 1009.7
20260904104041 18 0.0 0.0 0.00 0.10 0.00 99 1009.6
20260904103540 18 0.0 0.0 0.00 0.13 0.00 99 1009.6
20260904103025 18 151 0.0 1.6 0.00 0.13 0.00 99 1009.4
20260904102520 18 0.0 0.0 0.00 0.18 0.00 99 1009.4
20260904102024 18 0.0 0.0 0.00 0.20 0.00 99 1009.4
20260904101521 18 0.0 0.0 0.00 0.25 0.00 99 1009.3
20260904101041 18 151 0.0 1.6 0.00 0.28 0.00 99 1009.2
20260904100520 18 152 0.0 1.6 0.00 0.28 0.00 99 1009.3
20260904100021 18 0.0 0.0 0.00 0.28 0.00 99 1009.4
20260904095520 18 0.0 0.0 0.00 0.28 0.00 99 1009.3
20260904095020 18 0.0 0.0 0.00 0.30 0.00 99 1009.3
20260904094520 18 0.0 0.0 0.00 0.30 0.00 99 1009.3
20260904094020 18 0.0 0.0 0.00 0.33 0.00 99 1009.4
20260904093520 18 0.0 0.0 0.00 0.33 0.00 99 1009.4
20260904093021 18 0.0 0.0 0.00 0.33 0.00 99 1009.4
20260904092521 18 0.0 0.0 0.00 0.33 0.00 99 1009.4
20260904092021 18 0.0 0.0 0.00 0.33 0.00 99 1009.3
20260904091601 18 0.0 0.0 0.00 0.33 0.00 99 1009.2
20260904091020 18 0.0 0.0 0.00 0.33 0.00 99 1009.3
20260904090520 18 0.0 0.0 0.00 0.33 0.00 99 1009.3
20260904090020 18 0.0 0.0 0.00 0.33 0.00 99 1009.3
20260904085540 18 0.0 0.0 0.00 0.33 0.00 99 1009.3
20260904085019 18 0.0 0.0 0.00 0.33 0.00 99 1009.2
20260904084521 18 0.0 0.0 0.00 0.33 0.00 99 1009.1
20260904084021 18 0.0 1.6 0.00 0.33 0.00 99 1009.3
20260904083521 18 152 0.0 1.6 0.00 0.41 0.00 99 1009.4
20260904083020 18 0.0 0.0 0.00 0.46 0.00 99 1009.4
20260904082520 18 0.0 0.0 0.00 0.53 0.00 99 1009.4
20260904082020 18 0.0 0.0 0.00 0.56 0.00 99 1009.4
20260904081520 18 0.0 1.6 0.00 0.69 0.00 99 1009.5
20260904081019 18 152 0.0 1.6 0.00 0.79 0.00 99 1009.6
20260904080521 18 0.0 1.6 0.00 0.79 0.00 99 1009.6
20260904080021 18 152 0.0 1.6 0.00 0.79 0.00 99 1009.6
20260904075521 18 152 0.0 1.6 0.00 0.79 0.00 99 1009.7
20260904075021 18 152 0.0 3.2 0.00 0.79 0.00 99 1009.6
20260904074520 18 152 0.0 1.6 0.00 0.79 0.00 99 1009.7
20260904074020 18 152 0.0 1.6 0.00 0.79 0.00 99 1009.7
20260904073602 18 0.0 0.0 0.00 0.79 0.00 99 1009.7
20260904073020 18 152 0.0 1.6 0.00 0.79 0.00 99 1009.9
20260904072519 18 152 0.0 1.6 0.00 0.79 0.00 99 1010.0
20260904072021 18 0.0 0.0 0.00 0.79 0.00 99 1009.9
20260904071521 18 0.0 0.0 0.00 0.79 0.00 99 1009.8
20260904071021 18 0.0 0.0 0.00 0.79 0.00 99 1009.8
20260904070520 18 0.0 0.0 0.00 0.79 0.00 99 1009.8
20260904070021 18 0.0 0.0 0.00 0.79 0.00 99 1009.8
20260904065520 18 0.0 0.0 0.00 0.79 0.00 99 1009.8
20260904065020 18 0.0 0.0 0.00 0.79 0.00 99 1009.8
20260904064520 18 0.0 0.0 0.00 0.79 0.00 99 1009.9
20260904064041 18 0.0 0.0 0.00 0.79 0.00 99 1009.9
20260904063521 18 0.0 1.6 0.00 0.79 0.00 99 1010.0
20260904063024 18 152 0.0 1.6 0.00 0.79 0.00 99 1009.9
20260904062541 18 152 0.0 1.6 0.00 0.79 0.00 99 1009.9
20260904062021 18 152 0.0 1.6 0.00 0.79 0.00 99 1009.9
20260904061520 18 0.0 0.0 0.00 0.79 0.00 99 1010.0
20260904061040 18 0.0 0.0 0.00 0.79 0.00 99 1010.1
20260904060519 18 0.0 1.6 0.00 0.79 0.00 99 1010.2
20260904060021 18 152 0.0 1.6 0.00 0.79 0.00 99 1010.4
20260904055521 18 152 0.0 1.6 0.00 0.79 0.00 99 1010.6
20260904055021 18 152 0.0 1.6 0.00 0.79 0.00 99 1010.6
20260904054520 18 152 0.0 1.6 0.00 0.79 0.00 99 1010.7
20260904054020 18 0.0 1.6 0.00 0.79 0.00 99 1010.7
20260904053520 18 152 1.6 1.6 0.00 0.79 0.00 99 1010.8
20260904053020 18 151 0.0 3.2 0.00 0.79 0.00 99 1010.9
20260904052524 18 128 1.6 3.2 0.00 0.79 0.00 99 1010.9
20260904052020 18 115 1.6 3.2 0.00 0.79 0.00 99 1010.8
20260904051522 18 88 0.0 3.2 0.00 0.79 0.00 99 1010.8
20260904051021 18 112 1.6 4.8 0.00 0.79 0.00 99 1011.0
20260904050521 18 112 0.0 1.6 0.00 0.79 0.00 99 1011.1
20260904050020 18 111 0.0 1.6 0.00 0.79 0.00 99 1011.1
20260904045540 18 0.0 0.0 0.00 0.79 0.00 99 1011.0
20260904045020 18 111 0.0 1.6 0.00 0.79 0.00 99 1011.0
20260904044521 17 112 0.0 1.6 0.00 0.79 0.00 99 1011.0
20260904044019 17 112 0.0 1.6 0.00 0.79 0.00 99 1011.0
20260904043540 17 112 0.0 3.2 0.00 0.79 0.00 99 1011.1
20260904043021 17 124 0.0 1.6 0.00 0.79 0.00 99 1011.2
20260904042521 18 124 0.0 1.6 0.00 0.79 0.00 99 1011.2
20260904042041 18 121 0.0 1.6 0.00 0.79 0.00 99 1011.1
20260904041520 18 80 0.0 1.6 0.00 0.79 0.00 99 1011.4
20260904041020 18 80 0.0 1.6 0.00 0.79 0.00 99 1011.3
20260904040540 18 0.0 0.0 0.00 0.79 0.00 99 1011.2
20260904040040 18 80 0.0 1.6 0.00 0.79 0.00 99 1011.2
20260904035519 18 80 0.0 1.6 0.00 0.79 0.79 99 1011.3
20260904035019 18 80 0.0 1.6 0.00 0.79 0.79 99 1011.2
20260904034521 18 0.0 0.0 0.00 0.79 0.79 99 1011.2
20260904034021 18 0.0 0.0 0.00 0.79 0.79 99 1011.3
20260904033520 18 0.0 0.0 0.00 0.79 0.79 99 1011.4
20260904033020 18 0.0 0.0 0.00 0.79 0.79 99 1011.4
20260904032520 18 0.0 0.0 0.00 0.79 0.79 99 1011.3
20260904032020 18 0.0 0.0 0.00 0.79 0.79 99 1011.2
20260904031520 18 0.0 0.0 0.00 0.79 0.79 99 1011.3
20260904031021 18 0.0 0.0 0.00 0.79 0.79 99 1011.3
20260904030521 18 0.0 0.0 0.00 0.79 0.79 99 1011.3
20260904030021 18 0.0 0.0 0.00 0.79 0.79 99 1011.3
20260904025521 18 0.0 0.0 0.00 0.79 0.79 99 1011.3
20260904025020 18 0.0 0.0 0.00 0.79 0.79 99 1011.3
20260904024520 18 0.0 0.0 0.00 0.79 0.79 99 1011.5
20260904024020 18 0.0 0.0 0.00 0.79 0.79 99 1011.5
20260904023540 18 0.0 0.0 0.00 0.79 0.79 99 1011.6
20260904023020 18 0.0 0.0 0.00 0.79 0.79 99 1011.6
20260904022521 18 0.0 0.0 0.00 0.79 0.79 99 1011.7
20260904022021 18 0.0 0.0 0.00 0.79 0.79 99 1011.7
20260904021521 18 0.0 0.0 0.00 0.79 0.79 99 1011.8
20260904021021 18 0.0 0.0 0.00 0.79 0.79 98 1011.8
20260904020520 18 0.0 0.0 0.00 0.79 0.79 98 1011.8
20260904020020 18 0.0 0.0 0.00 0.79 0.79 98 1012.0
20260904015522 18 0.0 0.0 0.00 0.79 0.79 98 1012.0
20260904015022 18 0.0 0.0 0.00 0.79 0.79 98 1011.8
20260904014521 19 0.0 0.0 0.00 0.79 0.79 98 1011.9
20260904014021 19 0.0 0.0 0.00 0.79 0.79 98 1012.0
20260904013541 19 0.0 0.0 0.00 0.79 0.79 97 1012.0
20260904013041 19 0.0 0.0 0.00 0.79 0.79 97 1012.0
20260904012541 19 0.0 0.0 0.00 0.79 0.79 97 1012.1
20260904012020 19 0.0 0.0 0.00 0.79 0.79 97 1012.1
20260904011621 19 0.0 0.0 0.00 0.79 0.79 97 1012.0
20260904011020 19 0.0 0.0 0.00 0.79 0.79 97 1012.2
20260904010520 19 0.0 0.0 0.00 0.79 0.79 97 1012.0
20260904010020 19 0.0 0.0 0.00 0.79 0.79 96 1012.0
20260904005521 19 0.0 0.0 0.00 0.79 0.79 96 1011.8
20260904005021 20 0.0 0.0 0.00 0.79 0.79 96 1011.8
20260904004522 20 0.0 0.0 0.00 0.79 0.79 96 1011.7
20260904004020 20 0.0 0.0 0.00 0.79 0.79 96 1011.7
20260904003520 20 80 0.0 1.6 0.00 0.79 0.79 95 1011.6
20260904003040 20 79 0.0 1.6 0.00 0.79 0.79 95 1011.5
20260904002520 20 0.0 1.6 0.00 0.79 0.79 94 1011.4
20260904002040 20 177 0.0 1.6 0.00 0.79 0.79 94 1011.4
20260904001522 20 184 1.6 3.2 0.00 0.79 0.79 94 1011.3
20260904001021 20 193 0.0 1.6 0.00 0.79 0.79 95 1011.3
20260904000541 20 193 0.0 1.6 0.00 0.79 0.79 94 1011.3
20260904000041 20 194 0.0 1.6 0.00 0.79 0.79 94 1011.4
20260903235541 20 194 0.0 1.6 0.00 0.79 0.79 95 1011.2
20260903235020 20 0.0 0.0 0.00 0.79 0.79 95 1011.2
20260903234520 20 0.0 0.0 0.00 0.79 0.79 95 1011.1
20260903234019 21 194 0.0 1.6 0.00 0.79 0.79 95 1011.1
20260903233519 21 0.0 0.0 0.00 0.79 0.79 95 1011.1
20260903233023 21 193 0.0 1.6 0.00 0.79 0.79 94 1011.1
20260903232521 21 164 0.0 3.2 0.00 0.79 0.79 94 1011.2
20260903232021 21 128 0.0 1.6 0.00 0.79 0.79 95 1011.3
20260903231621 21 0.0 0.0 0.00 0.79 0.79 95 1011.5
20260903231025 21 127 0.0 1.6 0.00 0.79 0.79 94 1011.3
20260903230520 21 0.0 1.6 0.00 0.79 0.79 93 1011.1
20260903230022 22 127 1.6 4.8 0.00 0.79 0.79 91 1011.1
20260903225521 21 111 0.0 4.8 0.00 0.79 0.79 93 1011.1
20260903225021 22 0.0 0.0 0.00 0.79 0.79 93 1011.1
20260903224521 22 162 0.0 1.6 0.00 0.79 0.79 91 1011.0
20260903224021 21 170 0.0 3.2 0.00 0.79 0.79 93 1011.1
20260903223600 21 182 0.0 1.6 0.00 0.79 0.79 94 1011.3
20260903223022 21 0.0 0.0 0.00 0.79 0.79 93 1011.3
20260903222522 22 0.0 0.0 0.00 0.79 0.79 93 1011.5
20260903222021 22 0.0 0.0 0.00 0.79 0.79 93 1011.6
20260903221521 22 0.0 0.0 0.00 0.79 0.79 92 1011.5
20260903221041 22 182 0.0 1.6 0.00 0.79 0.79 90 1011.5
20260903220521 22 182 1.6 3.2 0.00 0.79 0.79 87 1011.4
20260903220021 22 155 1.6 3.2 0.00 0.79 0.79 89 1011.5
20260903215520 22 0.0 0.0 0.00 0.79 0.79 90 1011.6
20260903215022 22 164 0.0 1.6 0.00 0.79 0.79 88 1011.5
20260903214522 23 163 0.0 3.2 0.00 0.79 0.79 84 1011.3
20260903214022 23 131 1.6 4.8 0.00 0.79 0.79 85 1011.4
20260903213521 22 111 3.2 6.4 0.00 0.79 0.79 87 1011.3
20260903213021 22 164 1.6 4.8 0.00 0.79 0.79 89 1011.4
20260903212541 22 0.0 0.0 0.00 0.79 0.79 88 1011.3
20260903212021 23 201 0.0 1.6 0.00 0.79 0.79 87 1011.3
20260903211520 23 201 0.0 1.6 0.00 0.79 0.79 85 1011.4
20260903211020 23 192 1.6 6.4 0.00 0.79 0.79 84 1011.6
20260903210522 23 174 1.6 6.4 0.00 0.79 0.79 85 1011.4
20260903210021 23 162 0.0 3.2 0.00 0.79 0.79 84 1011.4
20260903205521 23 156 1.6 3.2 0.00 0.79 0.79 84 1011.4
20260903205042 23 152 1.6 4.8 0.00 0.79 0.79 84 1011.4
20260903204521 23 148 0.0 1.6 0.00 0.79 0.79 83 1011.4
20260903204020 23 105 0.0 1.6 0.00 0.79 0.79 83 1011.4
20260903203520 23 67 0.0 3.2 0.00 0.79 0.79 82 1011.5
20260903203020 23 70 1.6 4.8 0.00 0.79 0.79 81 1011.5
20260903202543 23 130 3.2 9.7 0.00 0.79 0.79 80 1011.4
20260903202022 23 115 3.2 6.4 0.00 0.79 0.79 81 1011.6
20260903201520 23 115 1.6 6.4 0.00 0.79 0.79 82 1011.7
20260903201021 23 141 1.6 4.8 0.00 0.79 0.79 83 1011.7
20260903200541 23 83 1.6 4.8 0.00 0.79 0.79 82 1011.8
20260903200021 23 63 1.6 3.2 0.00 0.79 0.79 82 1011.7
20260903195521 23 77 1.6 4.8 0.00 0.79 0.79 81 1011.9
20260903195020 23 101 3.2 6.4 0.00 0.79 0.79 82 1012.0
20260903194520 23 109 0.0 1.6 0.00 0.79 0.79 82 1012.1
20260903194022 23 100 1.6 6.4 0.00 0.79 0.79 82 1012.0
20260903193522 23 108 1.6 6.4 0.00 0.79 0.79 82 1012.1
20260903193021 23 108 1.6 6.4 0.00 0.79 0.79 82 1012.1
20260903192521 23 116 1.6 6.4 0.00 0.79 0.79 82 1012.2
20260903192021 23 111 3.2 6.4 0.00 0.79 0.79 83 1012.2
20260903191521 22 102 1.6 6.4 0.00 0.79 0.79 84 1012.2
20260903191021 22 119 1.6 4.8 0.00 0.79 0.79 85 1012.3
20260903190520 22 97 1.6 4.8 0.00 0.79 0.79 85 1012.3
20260903190020 22 97 3.2 4.8 0.00 0.79 0.79 86 1012.3
20260903185522 22 82 1.6 4.8 0.00 0.79 0.79 87 1012.3
20260903185022 22 76 3.2 6.4 0.00 0.79 0.79 86 1012.5
20260903184521 22 98 0.0 4.8 0.00 0.79 0.79 88 1012.6
20260903184021 22 97 0.0 3.2 0.00 0.79 0.79 87 1012.7
20260903183521 22 74 0.0 3.2 0.00 0.79 0.79 88 1012.8
20260903183026 22 60 1.6 3.2 0.00 0.79 0.79 88 1012.8
20260903182520 22 45 0.0 1.6 0.00 0.79 0.79 86 1012.9
20260903182041 21 37 0.0 1.6 0.00 0.79 0.79 87 1012.9
20260903181520 21 60 0.0 1.6 0.00 0.79 0.79 87 1013.0
20260903181042 22 61 0.0 3.2 0.00 0.79 0.79 86 1012.9
20260903180522 22 3 0.0 3.2 0.00 0.79 0.79 86 1012.9
20260903180021 22 42 0.0 3.2 0.00 0.79 0.79 86 1013.0
20260903175521 22 323 0.0 1.6 0.00 0.79 0.79 87 1013.1
20260903175021 22 39 0.0 1.6 0.00 0.79 0.79 86 1013.1
20260903174546 21 6 0.0 1.6 0.00 0.79 0.79 88 1013.1
20260903174020 21 60 1.6 4.8 0.00 0.79 0.79 87 1013.1
20260903173520 21 281 1.6 3.2 0.00 0.79 0.79 89 1013.3
20260903173022 21 82 0.0 1.6 0.00 0.79 0.79 88 1013.1
20260903172522 21 61 0.0 1.6 0.00 0.79 0.79 88 1013.2
20260903172022 21 0.0 0.0 0.00 0.79 0.79 90 1013.1
20260903171521 21 66 0.0 4.8 0.00 0.79 0.79 89 1013.1
20260903171021 21 347 1.6 4.8 0.00 0.79 0.79 89 1013.0
20260903170521 21 37 0.0 1.6 0.00 0.79 0.79 90 1013.1
20260903170020 21 38 0.0 3.2 0.00 0.79 0.79 90 1013.2
20260903165520 21 37 0.0 3.2 0.00 0.79 0.79 90 1013.1
20260903165022 21 38 0.0 1.6 0.00 0.79 0.79 92 1013.0
20260903164602 20 38 0.0 1.6 0.00 0.79 0.79 92 1013.0
20260903163521 20 37 0.0 1.6 0.00 0.79 0.79 91 1012.9
20260903163041 21 38 0.0 3.2 0.00 0.79 0.79 91 1012.8
20260903162521 20 261 0.0 4.8 0.00 0.79 0.79 93 1012.9
20260903162041 20 258 0.0 4.8 0.00 0.79 0.79 92 1013.0
20260903161520 20 222 0.0 1.6 0.00 0.79 0.79 91 1013.0
20260903161020 20 223 0.0 1.6 0.00 0.79 0.79 93 1012.9
20260903160542 20 223 0.0 1.6 0.00 0.79 0.79 94 1013.1
20260903160042 20 223 0.0 1.6 0.00 0.79 0.79 93 1013.1
20260903155542 20 223 0.0 1.6 0.00 0.79 0.79 94 1013.1
20260903155041 20 111 1.6 3.2 0.00 0.79 0.79 94 1013.2
20260903154521 20 87 1.6 3.2 0.00 0.79 0.79 94 1013.3
20260903154021 20 131 0.0 1.6 0.00 0.79 0.79 95 1013.5
20260903153541 19 131 0.0 1.6 0.00 0.79 0.79 95 1013.6
20260903153020 19 131 0.0 1.6 0.00 0.79 0.79 95 1013.6
20260903152520 19 131 0.0 1.6 0.00 0.79 0.79 96 1013.6
20260903152020 19 0.0 0.0 0.00 0.79 0.79 97 1013.8
20260903151520 19 0.0 0.0 0.00 0.79 0.79 97 1013.6
20260903151020 19 0.0 1.6 0.00 0.79 0.79 97 1013.7
20260903150600 19 131 0.0 1.6 0.00 0.79 0.79 98 1013.7
20260903150040 18 154 0.0 3.2 0.00 0.79 0.79 97 1013.8
20260903145521 18 160 0.0 1.6 0.00 0.79 0.79 98 1013.8
20260903145021 18 159 0.0 1.6 0.00 0.79 0.79 97 1013.9
20260903144546 18 161 0.0 1.6 0.00 0.79 0.79 97 1013.9
20260903144020 18 161 0.0 1.6 0.00 0.79 0.79 97 1014.0
20260903143520 18 166 0.0 3.2 0.00 0.79 0.79 98 1013.9
20260903143020 18 170 0.0 3.2 0.00 0.79 0.79 98 1013.9
20260903142520 18 172 1.6 4.8 0.00 0.79 0.79 98 1013.9
20260903142019 18 230 1.6 4.8 0.00 0.79 0.79 98 1013.9
20260903141559 18 281 0.0 3.2 0.00 0.79 0.79 99 1014.0
20260903141046 18 226 0.0 3.2 0.00 0.79 0.79 99 1014.3
20260903140521 18 209 0.0 3.2 0.00 0.79 0.79 99 1014.3
20260903140020 18 205 0.0 9.7 0.00 0.79 0.79 99 1014.4
20260903135520 18 240 0.0 9.7 0.00 0.79 0.79 99 1014.5
20260903135040 18 280 0.0 3.2 0.00 0.79 0.79 99 1014.4
20260903134522 17 242 0.0 1.6 0.00 0.79 0.79 99 1014.4
20260903134022 17 187 0.0 3.2 0.00 0.79 0.79 99 1014.4
20260903133522 17 187 1.6 4.8 0.00 0.79 0.79 99 1014.4
20260903133021 17 143 1.6 4.8 0.00 0.79 0.79 99 1014.3
20260903132521 17 93 0.0 1.6 0.00 0.79 0.79 99 1014.4
20260903132021 17 88 0.0 3.2 0.00 0.79 0.79 99 1014.4
20260903131520 17 88 0.0 1.6 0.00 0.79 0.79 99 1014.4
20260903131020 17 88 0.0 1.6 0.00 0.79 0.79 99 1014.4
20260903130520 17 88 0.0 1.6 0.00 0.79 0.79 99 1014.3